TimeCST,TemperatureF,Dew PointF,Humidity,Sea Level PressureIn,VisibilityMPH,Wind Direction,Wind SpeedMPH,Gust SpeedMPH,PrecipitationIn,Events,Conditions,WindDirDegrees,DateUTC
12:53 AM,39.0,28.0,65,30.28,10.0,North,18.4,-,N/A,,Clear,350,2013-01-20 06:53:00
1:53 AM,36.0,21.9,57,30.31,10.0,North,15.0,20.7,N/A,,Clear,350,2013-01-20 07:53:00
2:53 AM,33.1,19.0,56,30.32,10.0,North,12.7,-,N/A,,Clear,360,2013-01-20 08:53:00
3:53 AM,30.0,12.0,47,30.31,10.0,NNE,10.4,-,N/A,,Clear,20,2013-01-20 09:53:00
4:53 AM,27.0,10.0,49,30.32,10.0,North,10.4,-,N/A,,Clear,360,2013-01-20 10:53:00
5:53 AM,25.0,8.1,49,30.33,10.0,North,11.5,-,N/A,,Clear,10,2013-01-20 11:53:00
6:53 AM,23.0,9.0,55,30.33,10.0,NNE,8.1,-,N/A,,Clear,30,2013-01-20 12:53:00
7:53 AM,23.0,8.1,53,30.33,10.0,NE,10.4,-,N/A,,Clear,40,2013-01-20 13:53:00
8:53 AM,24.1,8.1,51,30.32,10.0,ENE,12.7,-,N/A,,Clear,60,2013-01-20 14:53:00
9:53 AM,27.0,9.0,47,30.36,10.0,ENE,9.2,-,N/A,,Clear,70,2013-01-20 15:53:00
10:53 AM,28.9,9.0,43,30.37,10.0,NE,8.1,-,N/A,,Clear,40,2013-01-20 16:53:00
11:53 AM,32.0,10.0,40,30.35,10.0,NE,10.4,-,N/A,,Clear,40,2013-01-20 17:53:00
12:53 PM,32.0,9.0,38,30.32,10.0,ENE,6.9,-,N/A,,Clear,60,2013-01-20 18:53:00
1:53 PM,30.9,9.0,40,30.31,10.0,NNE,11.5,-,N/A,,Clear,20,2013-01-20 19:53:00
2:53 PM,30.9,9.0,40,30.32,10.0,North,9.2,-,N/A,,Clear,10,2013-01-20 20:53:00
3:53 PM,30.9,9.0,40,30.33,10.0,NNE,11.5,-,N/A,,Clear,30,2013-01-20 21:53:00
4:53 PM,30.0,10.0,43,30.33,10.0,NNE,13.8,-,N/A,,Clear,20,2013-01-20 22:53:00
5:53 PM,28.0,7.0,41,30.35,10.0,NNE,11.5,-,N/A,,Mostly Cloudy,20,2013-01-20 23:53:00
6:53 PM,27.0,8.1,45,30.38,10.0,North,13.8,-,N/A,,Overcast,10,2013-01-21 00:53:00
7:53 PM,25.0,7.0,46,30.40,10.0,North,13.8,-,N/A,,Scattered Clouds,360,2013-01-21 01:53:00
8:53 PM,24.1,8.1,51,30.40,10.0,North,9.2,-,N/A,,Mostly Cloudy,360,2013-01-21 02:53:00
9:53 PM,23.0,8.1,53,30.40,10.0,North,-9999.0,-,N/A,,Clear,0,2013-01-21 03:53:00
10:53 PM,21.9,9.0,58,30.43,10.0,North,8.1,-,N/A,,Clear,360,2013-01-21 04:53:00
11:53 PM,19.0,8.1,62,30.43,10.0,NNW,6.9,-,N/A,,Clear,340,2013-01-21 05:53:00